TimeAKDT,TemperatureF,Dew PointF,Humidity,Sea Level PressureIn,VisibilityMPH,Wind Direction,Wind SpeedMPH,Gust SpeedMPH,PrecipitationIn,Events,Conditions,WindDirDegrees,DateUTC
12:16 AM,51.8,46.4,82,29.97,10.0,North,-9999.0,-,N/A,,Mostly Cloudy,0,2012-10-07 08:16:00
12:36 AM,51.8,46.4,82,29.97,10.0,North,-9999.0,-,N/A,,Mostly Cloudy,0,2012-10-07 08:36:00
12:56 AM,51.8,46.4,82,29.97,10.0,North,-9999.0,-,N/A,,Mostly Cloudy,0,2012-10-07 08:56:00
1:16 AM,50.0,44.6,82,29.98,10.0,North,-9999.0,-,N/A,,Overcast,0,2012-10-07 09:16:00
1:36 AM,48.2,44.6,87,29.98,10.0,North,-9999.0,-,N/A,,Overcast,0,2012-10-07 09:36:00
1:56 AM,48.2,44.6,87,29.99,10.0,North,-9999.0,-,N/A,,Overcast,0,2012-10-07 09:56:00
2:16 AM,48.2,44.6,87,29.99,10.0,North,-9999.0,-,N/A,,Mostly Cloudy,0,2012-10-07 10:16:00
2:36 AM,48.2,46.4,93,29.99,10.0,North,-9999.0,-,N/A,,Overcast,0,2012-10-07 10:36:00
2:56 AM,50.0,46.4,87,30.00,10.0,North,-9999.0,-,N/A,,Overcast,0,2012-10-07 10:56:00
3:16 AM,48.2,46.4,93,29.99,10.0,North,-9999.0,-,N/A,,Overcast,0,2012-10-07 11:16:00
3:36 AM,48.2,46.4,93,30.00,10.0,North,-9999.0,-,N/A,,Overcast,0,2012-10-07 11:36:00
3:56 AM,48.2,46.4,93,30.00,10.0,North,-9999.0,-,N/A,,Overcast,0,2012-10-07 11:56:00
4:16 AM,48.2,46.4,93,29.99,10.0,North,-9999.0,-,N/A,,Overcast,0,2012-10-07 12:16:00
4:36 AM,50.0,46.4,87,30.00,10.0,North,-9999.0,-,N/A,,Overcast,0,2012-10-07 12:36:00
4:56 AM,51.8,46.4,82,29.99,10.0,North,-9999.0,-,N/A,,Overcast,0,2012-10-07 12:56:00
5:16 AM,59.0,51.8,77,30.00,10.0,North,-9999.0,-,N/A,,Mostly Cloudy,0,2012-10-07 13:16:00
5:36 AM,59.0,50.0,72,29.99,10.0,North,-9999.0,-,N/A,,Mostly Cloudy,0,2012-10-07 13:36:00
5:56 AM,60.8,50.0,68,30.01,10.0,North,-9999.0,-,N/A,,Mostly Cloudy,0,2012-10-07 13:56:00
6:16 AM,57.2,48.2,72,30.00,10.0,North,-9999.0,-,N/A,,Mostly Cloudy,0,2012-10-07 14:16:00
6:36 AM,60.8,50.0,68,29.98,10.0,North,-9999.0,-,N/A,,Mostly Cloudy,0,2012-10-07 14:36:00
6:56 AM,60.8,50.0,68,29.98,10.0,North,-9999.0,-,N/A,,Mostly Cloudy,0,2012-10-07 14:56:00
7:16 AM,60.8,48.2,63,30.01,10.0,North,-9999.0,-,N/A,,Scattered Clouds,0,2012-10-07 15:16:00
7:36 AM,51.8,46.4,82,30.02,10.0,North,-9999.0,-,N/A,,Partly Cloudy,0,2012-10-07 15:36:00
7:56 AM,51.8,46.4,82,30.03,10.0,North,-9999.0,-,N/A,,Mostly Cloudy,0,2012-10-07 15:56:00
8:16 AM,53.6,46.4,77,30.04,10.0,North,-9999.0,-,N/A,,Mostly Cloudy,0,2012-10-07 16:16:00
8:36 AM,51.8,46.4,82,30.03,10.0,North,-9999.0,-,N/A,,Overcast,0,2012-10-07 16:36:00
8:56 AM,51.8,46.4,82,30.05,10.0,North,-9999.0,-,N/A,,Overcast,0,2012-10-07 16:56:00
9:36 AM,51.8,46.4,82,30.03,10.0,North,-9999.0,-,N/A,,Overcast,0,2012-10-07 17:36:00
9:56 AM,53.6,46.4,77,30.03,10.0,North,-9999.0,-,N/A,,Overcast,0,2012-10-07 17:56:00
10:16 AM,55.4,46.4,72,30.04,10.0,North,-9999.0,-,N/A,,Overcast,0,2012-10-07 18:16:00
10:36 AM,53.6,46.4,77,30.06,10.0,North,-9999.0,-,N/A,,Overcast,0,2012-10-07 18:36:00
10:56 AM,51.8,46.4,82,30.07,10.0,North,-9999.0,-,N/A,,Overcast,0,2012-10-07 18:56:00
11:16 AM,53.6,46.4,77,30.08,10.0,North,-9999.0,-,N/A,,Overcast,0,2012-10-07 19:16:00
11:36 AM,51.8,46.4,82,30.08,10.0,North,-9999.0,-,N/A,,Overcast,0,2012-10-07 19:36:00
11:56 AM,53.6,46.4,77,30.08,10.0,North,-9999.0,-,N/A,,Overcast,0,2012-10-07 19:56:00
12:16 PM,53.6,46.4,77,30.09,10.0,North,-9999.0,-,N/A,,Overcast,0,2012-10-07 20:16:00
12:36 PM,57.2,48.2,72,30.10,10.0,North,-9999.0,-,N/A,,Overcast,0,2012-10-07 20:36:00
12:56 PM,53.6,48.2,82,30.11,10.0,North,-9999.0,-,N/A,,Overcast,0,2012-10-07 20:56:00
1:16 PM,53.6,46.4,77,30.11,10.0,North,-9999.0,-,N/A,,Overcast,0,2012-10-07 21:16:00
1:36 PM,53.6,48.2,82,30.11,10.0,North,-9999.0,-,N/A,,Overcast,0,2012-10-07 21:36:00
1:56 PM,53.6,46.4,77,30.11,10.0,North,-9999.0,-,N/A,,Overcast,0,2012-10-07 21:56:00
2:16 PM,53.6,46.4,77,30.11,10.0,North,-9999.0,-,N/A,,Overcast,0,2012-10-07 22:16:00
2:36 PM,53.6,46.4,77,30.12,10.0,North,-9999.0,-,N/A,,Overcast,0,2012-10-07 22:36:00
2:56 PM,51.8,46.4,82,30.12,10.0,North,-9999.0,-,N/A,,Overcast,0,2012-10-07 22:56:00
3:16 PM,50.0,44.6,82,30.12,10.0,North,-9999.0,-,N/A,,Overcast,0,2012-10-07 23:16:00
3:36 PM,48.2,44.6,87,30.12,9.0,North,-9999.0,-,N/A,,Overcast,0,2012-10-07 23:36:00
3:56 PM,48.2,44.6,87,30.13,9.0,North,-9999.0,-,N/A,,Overcast,0,2012-10-07 23:56:00
4:16 PM,48.2,44.6,87,30.13,10.0,North,-9999.0,-,N/A,,Overcast,0,2012-10-08 00:16:00
4:36 PM,48.2,44.6,87,30.12,6.0,North,-9999.0,-,N/A,,Overcast,0,2012-10-08 00:36:00
4:56 PM,48.2,44.6,87,30.12,7.0,North,-9999.0,-,N/A,,Overcast,0,2012-10-08 00:56:00
5:16 PM,48.2,44.6,87,30.13,9.0,North,-9999.0,-,N/A,,Overcast,0,2012-10-08 01:16:00
5:36 PM,48.2,44.6,87,30.13,6.0,North,-9999.0,-,N/A,,Mostly Cloudy,0,2012-10-08 01:36:00
5:56 PM,48.2,44.6,87,30.14,5.0,North,-9999.0,-,N/A,,Overcast,0,2012-10-08 01:56:00
6:16 PM,48.2,44.6,87,30.15,5.0,North,-9999.0,-,N/A,,Overcast,0,2012-10-08 02:16:00
6:36 PM,48.2,44.6,87,30.15,3.0,North,-9999.0,-,N/A,,Overcast,0,2012-10-08 02:36:00
6:56 PM,48.2,44.6,87,30.16,2.5,North,-9999.0,-,N/A,,Overcast,0,2012-10-08 02:56:00
7:16 PM,48.2,44.6,87,30.16,2.0,North,-9999.0,-,N/A,,Overcast,0,2012-10-08 03:16:00
7:36 PM,48.2,44.6,87,30.17,2.5,North,-9999.0,-,N/A,,Mostly Cloudy,0,2012-10-08 03:36:00
7:56 PM,48.2,42.8,82,30.17,2.5,North,-9999.0,-,N/A,,Scattered Clouds,0,2012-10-08 03:56:00
8:16 PM,48.2,42.8,82,30.17,6.0,North,-9999.0,-,N/A,,Mostly Cloudy,0,2012-10-08 04:16:00
8:36 PM,48.2,42.8,82,30.17,10.0,North,-9999.0,-,N/A,,Overcast,0,2012-10-08 04:36:00
8:56 PM,46.4,42.8,87,30.16,10.0,North,-9999.0,-,N/A,,Overcast,0,2012-10-08 04:56:00
9:16 PM,46.4,42.8,87,30.15,10.0,North,-9999.0,-,N/A,,Scattered Clouds,0,2012-10-08 05:16:00
9:36 PM,48.2,42.8,82,30.15,10.0,North,-9999.0,-,N/A,,Clear,0,2012-10-08 05:36:00
9:56 PM,46.4,42.8,87,30.15,10.0,North,-9999.0,-,N/A,,Scattered Clouds,0,2012-10-08 05:56:00
10:16 PM,48.2,42.8,82,30.15,10.0,North,-9999.0,-,N/A,,Scattered Clouds,0,2012-10-08 06:16:00
10:36 PM,46.4,42.8,87,30.15,10.0,North,-9999.0,-,N/A,,Clear,0,2012-10-08 06:36:00
10:56 PM,46.4,42.8,87,30.16,10.0,North,-9999.0,-,N/A,,Mostly Cloudy,0,2012-10-08 06:56:00
11:16 PM,48.2,42.8,82,30.17,10.0,North,-9999.0,-,N/A,,Overcast,0,2012-10-08 07:16:00
11:36 PM,48.2,42.8,82,30.17,10.0,North,-9999.0,-,N/A,,Overcast,0,2012-10-08 07:36:00
11:56 PM,46.4,42.8,87,30.17,10.0,North,-9999.0,-,N/A,,Overcast,0,2012-10-08 07:56:00